{"data":{"norad_id":63877,"epoch":"2026-05-25T03:23:09.288672Z","epoch_age_seconds":59557,"freshness":"FRESH","line1":"1 63877U 25094P   26145.14107973  .00003588  00000+0  30827-3 0  9997","line2":"2 63877  70.0022  41.7416 0002724 269.4715  90.6132 14.98338978 58651","mean_motion":14.98338978,"eccentricity":0.0002724,"inclination_deg":70.0022,"raan_deg":41.7416,"arg_perigee_deg":269.4715,"mean_anomaly_deg":90.6132,"bstar":0.00030827,"rev_number":5865,"period_min":96.106423255579,"perigee_km":570.13490237795,"apogee_km":573.92135233934,"semimajor_km":6950.1651273586,"source":"CELESTRAK","updated_at":"2026-05-25T13:38:20.171674Z"}}